Regional Weather Roundup
Issued by NWS

Home | Current Version | Previous Version | Graphics & Text | Print | Product List | Glossary On
Versions: 1 2 3 4 5 6 7 8 9 10 11 12 13 14 15 16 17 18 19 20 21 22 23 24 25 26 27 28 29 30 31 32 33 34 35 36 37 38 39 40 41 42 43 44 45 46 47 48 49 50
000
ASUS43 KMPX 290110
RWRMN
WEATHER ROUNDUP FOR MINNESOTA
NATIONAL WEATHER SERVICE TWIN CITIES/CHANHASSEN MN
800 PM CDT FRI APR 28 2017


NOTE: "FAIR" INDICATES FEW OR NO CLOUDS BELOW 12,000 FEET WITH NO
SIGNIFICANT WEATHER AND/OR OBSTRUCTIONS TO VISIBILITY. N/A MEANS
CURRENT SKY AND/OR WEATHER CONDITIONS ARE NOT AVAILABLE.

MNZ060>063-068>070-290200-
   Twin Cities Metro

CITY           SKY/WX    TMP DP  RH WIND       PRES   REMARKS
TWIN CITIES    MOCLDY    48  27  44 N10G17    30.02R
ST PAUL        MOCLDY    48  28  46 N8        30.02R
CRYSTAL        CLOUDY    47  26  44 NE5       30.01R
BLAINE         MOCLDY    48  30  49 N7        30.01R
LAKEVILLE      CLOUDY    46  30  53 N7        30.01R
EDEN PRAIRIE   PTCLDY    49  25  39 N9        30.00R
SOUTH ST PAUL  PTCLDY    48  29  46 N6        30.01R
LAKE ELMO      FAIR      45  32  61 NW3       30.02R
$$
MNZ001>005-007-008-013>017-022>024-027-028-290200-
   Northwest Minnesota

CITY           SKY/WX    TMP DP  RH WIND       PRES   REMARKS
BEMIDJI        CLEAR     44  18  34 N5        30.05R
HALLOCK        CLEAR     50  10  20 N9        30.08R
ROSEAU         CLEAR     45  25  45 NW7       30.06R
WARROAD        CLEAR     45  25  45 CALM      30.07R
THIEF RVR FALL CLEAR     47  19  33 N6        30.08R
CROOKSTON      CLEAR     48  25  40 N5        30.09R
FOSSTON        CLEAR     45  19  36 N7        30.08R
DETROIT LAKES  CLOUDY    46  19  34 N5        30.08R
MOORHEAD       CLEAR     48  23  37 N9        30.10R
PARK RAPIDS    CLOUDY    47  17  30 NW8       30.05R
MAHNOMEN       FAIR      44  26  48 NE7       30.08R
$$
MNZ006-009>011-018-025>026-290200-
   North Central Minnesota

CITY           SKY/WX    TMP DP  RH WIND       PRES   REMARKS
BAUDETTE       CLEAR     43  20  39 N5        30.05R
FLAG ISLAND    CLEAR     45  19  36 N6        30.05R
INTL FALLS     CLEAR     41  22  46 E3        30.04R
WASKISH        CLEAR     43  23  45 N6        30.06R
BIG FORK       CLEAR     43  21  42 CALM      30.04R
LONGVILLE      CLEAR     46  21  36 NW5       30.04R
GRAND RAPIDS   CLEAR     43  24  47 N9        30.05R
CRANE LAKE     CLEAR     39  19  45 NW6       30.06R
ORR            CLEAR     39  16  38 NW5       30.02R
COOK           CLEAR     39  21  48 N3        30.04R
WALKER         FAIR      44  17  33 N5        30.05R
$$
MNZ012-019>021-037-290200-
   Northeast Minnesota

CITY           SKY/WX    TMP DP  RH WIND       PRES   REMARKS
DULUTH         CLOUDY    43  26  51 N12       30.00R
ELY            CLEAR     36  25  64 NW3       30.03R
HIBBING        CLEAR     39  22  50 N9        30.03R
EVELETH        CLEAR     40  19  42 N7        30.04R
DULUTH HARBOR  CLOUDY    45  32  61 N14       30.03R
TWO HARBORS    CLOUDY    45  28  53 N6        30.00R
SILVER BAY     CLEAR     39  27  60 NW7       30.01R
GRAND MARAIS     N/A     38  28  67 VRB3      30.02R
G MARAIS ARPRT CLOUDY    30  21  69 CALM      29.98R
$$
MNZ029>031-032-039>041-046>048-054>057-064-290200-
   West Central Minnesota

CITY           SKY/WX    TMP DP  RH WIND       PRES   REMARKS
FERGUS FALLS   CLEAR     46  25  42 N9        30.07R
WHEATON        CLOUDY    48  19  32 N9G16     30.11R
MORRIS         CLOUDY    50  21  32 CALM      30.06R
ALEXANDRIA     CLOUDY    47  21  35 NW9       30.06R
ELBOW LAKE     FAIR      47  23  38 N12       30.07R
WADENA         CLEAR     43  23  45 NW7       30.05R
GLENWOOD       CLOUDY    46  21  36 NW14      30.05R
APPLETON       CLOUDY    48  23  37 N9        30.06R
BENSON         CLOUDY    50  10  20 NE8       30.07R
ORTONVILLE     CLOUDY    48  19  32 N13       30.07R
MADISON        PTCLDY    52  25  35 N13       30.06R
WILLMAR        FAIR      48  28  46 NW9       30.06R
$$
MNZ033>034-036-042>043-049>051-058-059-290200-
   Central Minnesota

CITY           SKY/WX    TMP DP  RH WIND       PRES   REMARKS
ST CLOUD       CLOUDY    47  24  40 NE3       30.02R
SAUK CENTRE    FAIR      49  18  30 N9        30.04R
PAYNESVILLE    PTCLDY    48  23  37 NW3       30.04R
AITKIN         CLOUDY    48  19  32 NW8       30.01R
PINE RIVER     CLOUDY    46  21  36 NW6       30.08R
BRAINERD       CLOUDY    47  17  30 N12       30.04R
STAPLES        CLOUDY    45  16  31 N8        30.04R
LONG PRAIRIE   FAIR      46  19  34 W9        30.04R
LITTLE FALLS   PTCLDY    48  18  29 N3        30.03R
LITCHFIELD     CLOUDY    48  28  46 N6        30.03R
BUFFALO        CLOUDY    49  26  40 N7        30.03R
MAPLE LAKE     CLOUDY    49  29  45 N6        30.03R
HUTCHINSON     CLEAR     49  29  46 NW8       30.04R
$$
MNZ037-044-045-052-053-290200-
   East Central Minnesota

CITY           SKY/WX    TMP DP  RH WIND       PRES   REMARKS
PRINCETON      CLOUDY    48  27  43 N3        30.02R
MORA           PTCLDY    45  27  49 NW8       30.03R
CAMBRIDGE      PTCLDY    48  30  49 NW3       30.00R
RUSH CITY      CLOUDY    46  29  52 W3        30.01R
MOOSE LAKE     CLOUDY    45  23  42 N7        29.99R
HINCKLEY       FAIR      46  27  46 NW6       30.01R
CLOQUET        CLOUDY    45  21  39 N8        30.01R
MCGREGOR       CLOUDY    46  28  49 N10       30.02R
$$
MNZ071>073-080-081-089-090-097-098-290200-
   Southwest Minnesota

CITY           SKY/WX    TMP DP  RH WIND       PRES   REMARKS
MONTEVIDEO     CLOUDY    48  23  37 NE8       30.05R
GRANITE FALLS  PTCLDY    50  22  33 N10       30.06R
CANBY          CLOUDY    49  25  39 N8        30.07R
MARSHALL       CLEAR     48  21  34 N12       30.05R
REDWOOD FALLS  PTCLDY    50  24  36 N6        30.03R
OLIVIA         PTCLDY    50  30  46 N6        30.03R
PIPESTONE      PTCLDY    46  19  34 NE12G20   30.01R
WINDOM         CLOUDY    48  30  49 N12       30.02R
WORTHINGTON    PTCLDY    45  31  58 N16       29.99S
JACKSON        CLOUDY    45  32  61 NE12      30.00S
TRACY          CLEAR     47  31  53 N9        30.04R
SLAYTON        CLEAR     46  26  46 NE10G18   30.02R
$$
MNZ065>067-074>077-082>085-091>093-290200-
   South Central Minnesota

CITY           SKY/WX    TMP DP  RH WIND       PRES   REMARKS
MANKATO        MOCLDY    46  32  58 N5        30.04R
NEW ULM        CLOUDY    48  28  46 N5        30.03R
ST JAMES       CLOUDY    46  34  61 N7        30.04R
FAIRMONT       CLOUDY    45  34  65 N9        30.00R
GLENCOE        PTCLDY    49  32  52 N3        30.02R
FARIBAULT      CLOUDY    46  34  61 CALM      30.01R
OWATONNA       PTCLDY    45  32  61 CALM      30.02R
WASECA         CLOUDY    43  32  65 CALM      30.04R
ALBERT LEA     CLOUDY    43  32  65 N6        30.00R
$$
MNZ078>079-086>088-094>096-290200-
   Southeast Minnesota

CITY           SKY/WX    TMP DP  RH WIND       PRES   REMARKS
ROCHESTER      CLOUDY    43  32  65 N6        30.00R
RED WING       CLOUDY    46  28  49 N5        30.00R
STANTON        CLOUDY    47  35  62 N7        30.00R
DODGE CENTER   CLOUDY    43  34  70 N5        30.00R
WINONA         CLOUDY    46  34  61 CALM      30.00R
AUSTIN         CLOUDY    45  32  61 N5        30.00R
PRESTON        CLOUDY    43  33  66 CALM      30.01R
$$
ABBREVIATIONS USED IN REMARKS
   TC - TEMPERATURES IN CELSIUS
  WCI - WIND CHILL INDEX
   HX - HEAT INDEX
  VSB - VISIBILITY
$$



USA.gov is the U.S. government's official web portal to all federal, state and local government web resources and services.